IDEFIX & ARIANE 42P R/B (27422 NORAD) Tracking and Keplerian Element Data

This shows tracking and keplerian element data for the satellite.

Feedback or suggestion? Click here.




ElementValue
Catalog27422
NameIDEFIX & ARIANE 42P R/B
Epoch Orbit84509
Epoch Day198.90708146
Epoch Year2018
RAAN182.8786
Inclination98.2574
Eccentricity0.0013063
Argument of Perigee139.1578
Mean Anonmoly221.0586
Mean Motion14.29264397
Decay Rate-2.5E-07
L11 27422U 02021B 18198.90708146 -.00000025 00000-0 60955-5 0 9992
L22 27422 98.2574 182.8786 0013063 139.1578 221.0586 14.29264397845098

Live tracking and technical data element details for IDEFIX & ARIANE 42P R/B (NORAD 27422). IDEFIX & ARIANE 42P R/B can be tracked NOW for your location showing map with azimuth and elevation plus other details from your city location.

Track the satellite on the map from your city or location and see movement details for azimuth, elevation, latitude, longitude, range, height, and movement on the map or in text.







IsCatalogInMostPopularTable: catalog: 27422, numindb: 43
Update: records affected: 1



GetName: 27422 IDEFIX & ARIANE 42P R/B

Hit Count: updated at: Wed, 18 Jul 2018 20:32:44 GMT